Regional Weather Roundup
Issued by NWS Green Bay, WI

Home | Current Version | Previous Version | Text Only | Print | Product List | Glossary On
Versions: 1 2 3 4 5 6 7 8 9 10 11 12 13 14 15 16 17 18 19 20 21 22 23 24 25 26 27 28 29 30 31 32 33 34 35 36 37 38 39 40 41 42 43 44 45 46 47 48 49 50
000
ASUS43 KGRB 241300
RWRGRB

NORTH-CENTRAL AND NORTHEAST WISCONSIN REGIONAL WEATHER ROUNDUP
NATIONAL WEATHER SERVICE GREEN BAY WI
800 AM CDT SUN MAY 24 2015

WIZ005-009-010>012-018-019-241400-
NORTH CENTRAL WISCONSIN

CITY           SKY/WX    TMP DP  RH WIND       PRES   REMARKS
IRONWOOD       PTSUNNY   57  48  72 CALM      30.10F
MANITOWISH WTR NOT AVBL
ARBOR VITAE    NOT AVBL
EAGLE RIVER    NOT AVBL
LAND O LAKES   NOT AVBL
RHINELANDER    PTSUNNY   63  47  55 E3        30.15F
PHILLIPS       NOT AVBL
ANTIGO         NOT AVBL
TOMAHAWK       NOT AVBL
MERRILL        NOT AVBL
$$

WIZ013-073-241400-
NORTHEAST WISCONSIN

CITY           SKY/WX    TMP DP  RH WIND       PRES   REMARKS
IRON MOUNTAIN  PTSUNNY   63  48  58 CALM      30.13F
MARINETTE      PTSUNNY   64  46  52 CALM      30.13F
$$

WIZ017-030-035>037-045-241400-
CENTRAL WISCONSIN

CITY           SKY/WX    TMP DP  RH WIND       PRES   REMARKS
MEDFORD        NOT AVBL
WAUSAU         CLOUDY    60  48  64 E3        30.12F
MOSINEE        SUNNY     61  48  63 SE5       30.15S
MARSHFIELD     CLOUDY    62  48  60 SE5       30.12F
WISC RAPIDS    LGT RAIN  64  44  48 SE3       30.14S
STEVENS POINT  NOT AVBL
WAUPACA        NOT AVBL
SHAWANO        NOT AVBL
CLINTONVILLE   NOT AVBL
$$

WIZ038-039-048-051-241400-
FOX VALLEY

CITY           SKY/WX    TMP DP  RH WIND       PRES   REMARKS
NWS GREEN BAY  CLOUDY    62  47  57 S5        30.15F
APPLETON       PTSUNNY   61  46  59 VRB5      30.15F
OSHKOSH        CLOUDY    65  51  60 S9        30.14F
FOND DU LAC    CLOUDY    64  49  57 SE5       30.14F
$$

WIZ022-050-052-241400-
EAST CENTRAL WISCONSIN

CITY           SKY/WX    TMP DP  RH WIND       PRES   REMARKS
STURGEON BAY   CLOUDY    63  45  51 S5        30.17F
MANITOWOC      NOT AVBL
SHEBOYGAN        N/A     60  47  61 CALM      30.16S
$$

LMZ563-521-522-541>543-241400-
LAKESHORE

STATION/POSITION TIME  TEMP    WIND        PRES    VSBY  WAVE
                       AIR SEA DIR/SP/G                  HT/PER
                 (UTC) (F)     (DEG/KT/KT) (MB)    (MI)  (FT/S)
SHEBOYGAN LKSHOR 1200   50     170/  6/  7 1021.9F
KEWAUNEE LKSHORE 1200   50     160/  2/  3 1020.6F
NORTHPORT PIER   1200   49     110/  5/  7 1021.3F
N MID LAKE BUOY  1150   40 36  170/  8/ 10 1022.4F         1
SISTER BAY LKSHO 1217   67     140/  6/  6   N/A
STURGEON BAY CG  1200           90/  3     1022.6      6   1
CHAMBERS ISLAND  1200   62     180/  3/  6 1021.0F
MENOMINEE LKSHOR 1200   58     180/  3/  4 1021.4F
$$


USA.gov is the U.S. government's official web portal to all federal, state and local government web resources and services.